Sturgis, MI

7:14 AM EDT on September 28, 2016 (GMT -0400)
Kirsch Municipal

Weather History for KIRS - July, 2013

Change the Weather History Date:

Tuesday, July 2, 2013

  Actual Average (KHAI) Record (KHAI)
Temperature  
Mean Temperature 62 °F -  
Max Temperature 69 °F 82 °F 96 °F (1949)
Min Temperature 55 °F 58 °F 44 °F (1976)
Degree Days  
Heating Degree Days 3    
Growing Degree Days 12 (Base 50)    
Moisture  
Dew Point 59 °F    
Average Humidity 85    
Maximum Humidity 100    
Minimum Humidity 68    
Precipitation  
Precipitation 0.00 in - - ()
Sea Level Pressure  
Sea Level Pressure 30.04 in    
Wind  
Wind Speed 8 mph (ENE)    
Max Wind Speed 13 mph    
Max Gust Speed 17 mph    
Visibility 9 miles    
Events Rain    
Averages and records for this station are not official NWS values.
T = Trace of Precipitation, MM = Missing Value Source: NWS Daily Summary

Daily Weather History Graph

Daily Weather History Graph

Search for Another Location

Airport or City:

Trip Planner

Search our weather history database for the weather conditions in past years. The results will help you decide how hot, cold, wet, or windy it might be!

Date:

Astronomy

Jul. 02, 2013 Rise Set
Actual Time 6:11 AM EDT 9:20 PM EDT
Civil Twilight 5:37 AM EDT 9:54 PM EDT
Nautical Twilight 4:53 AM EDT 10:37 PM EDT
Astronomical Twilight 4:01 AM EDT 11:29 PM EDT
Moon 2:16 AM EDT (7/2) 4:31 PM EDT (7/2)
Length of Visible Light 16h 17m
Length of Day
15h 09m
Waning Crescent, 26% of the Moon is Illuminated
Jul 2
Waning Crescent
Jul 8
New
Jul 15
First Quarter
Jul 22
Full
Jul 29
Last Quarter

Hourly Weather History & Observations

Time (EDT) Temp. Dew Point Humidity Pressure Visibility Wind Dir Wind Speed Gust Speed Precip Events Conditions
12:15 AM 64.4 °F 53.6 °F 68% 30.06 in 10.0 mi ENE 12.7 mph 16.1 mph N/A   Mostly Cloudy
12:35 AM 62.6 °F 53.6 °F 72% 30.05 in 10.0 mi NE 9.2 mph - N/A   Overcast
12:54 AM 62.6 °F 53.6 °F 72% 30.05 in 10.0 mi NE 10.4 mph - N/A   Overcast
1:15 AM 62.6 °F 53.6 °F 72% 30.05 in 10.0 mi NE 8.1 mph - N/A   Overcast
1:34 AM 62.6 °F 53.6 °F 72% 30.05 in 10.0 mi NE 8.1 mph - N/A   Overcast
1:55 AM 62.6 °F 53.6 °F 72% 30.05 in 10.0 mi NE 9.2 mph - N/A   Overcast
2:15 AM 62.6 °F 53.6 °F 72% 30.04 in 10.0 mi NNE 12.7 mph 17.3 mph N/A Rain Rain
2:34 AM 60.8 °F 51.8 °F 72% 30.04 in 10.0 mi NE 12.7 mph - N/A   Overcast
2:55 AM 60.8 °F 53.6 °F 77% 30.04 in 10.0 mi NE 9.2 mph - N/A   Overcast
3:15 AM 60.8 °F 53.6 °F 77% 30.04 in 10.0 mi ENE 12.7 mph - N/A   Overcast
3:34 AM 57.2 °F 55.4 °F 94% 30.03 in 10.0 mi NE 10.4 mph - N/A Rain Rain
3:55 AM 57.2 °F 55.4 °F 94% 30.03 in 10.0 mi NNE 5.8 mph - N/A   Overcast
4:15 AM 57.2 °F 53.6 °F 88% 30.03 in 10.0 mi NNE 10.4 mph - N/A   Overcast
4:34 AM 57.2 °F 53.6 °F 88% 30.03 in 10.0 mi NNE 8.1 mph - N/A   Overcast
4:55 AM 57.2 °F 53.6 °F 88% 30.03 in 10.0 mi NNE 10.4 mph - N/A   Overcast
5:15 AM 57.2 °F 53.6 °F 88% 30.03 in 10.0 mi NNE 9.2 mph - N/A   Overcast
5:34 AM 55.4 °F 53.6 °F 94% 30.03 in 10.0 mi NNE 8.1 mph - N/A   Overcast
5:55 AM 57.2 °F 53.6 °F 88% 30.03 in 10.0 mi NNE 6.9 mph - N/A   Overcast
6:15 AM 57.2 °F 53.6 °F 88% 30.04 in 10.0 mi NNE 6.9 mph - N/A   Overcast
6:35 AM 57.2 °F 53.6 °F 88% 30.04 in 10.0 mi NNE 8.1 mph - N/A   Overcast
6:55 AM 57.2 °F 53.6 °F 88% 30.04 in 10.0 mi NNE 10.4 mph - N/A   Overcast
7:15 AM 57.2 °F 53.6 °F 88% 30.04 in 10.0 mi NNE 9.2 mph - N/A   Overcast
7:35 AM 57.2 °F 53.6 °F 88% 30.04 in 10.0 mi NNE 8.1 mph 17.3 mph N/A   Overcast
7:55 AM 57.2 °F 53.6 °F 88% 30.04 in 10.0 mi NNE 6.9 mph - N/A   Overcast
8:15 AM 57.2 °F 53.6 °F 88% 30.05 in 10.0 mi NE 8.1 mph - N/A   Overcast
8:35 AM 57.2 °F 55.4 °F 94% 30.05 in 10.0 mi NE 8.1 mph - N/A   Light Drizzle
8:54 AM 57.2 °F 55.4 °F 94% 30.05 in 10.0 mi NE 10.4 mph - N/A   Overcast
9:15 AM 59.0 °F 55.4 °F 88% 30.05 in 10.0 mi NE 8.1 mph - N/A   Overcast
9:35 AM 60.8 °F 55.4 °F 82% 30.05 in 10.0 mi NE 8.1 mph - N/A   Overcast
9:54 AM 60.8 °F 57.2 °F 88% 30.05 in 10.0 mi NE 11.5 mph - N/A   Overcast
10:15 AM 60.8 °F 57.2 °F 88% 30.04 in 10.0 mi NE 10.4 mph - N/A   Overcast
10:35 AM 60.8 °F 57.2 °F 88% 30.05 in 10.0 mi ENE 9.2 mph - N/A   Overcast
10:54 AM 62.6 °F 57.2 °F 82% 30.05 in 10.0 mi NE 9.2 mph - N/A   Overcast
11:15 AM 62.6 °F 57.2 °F 82% 30.05 in 10.0 mi ENE 6.9 mph - N/A   Overcast
11:34 AM 62.6 °F 57.2 °F 82% 30.06 in 10.0 mi ENE 9.2 mph - N/A   Overcast
11:55 AM 62.6 °F 57.2 °F 82% 30.06 in 10.0 mi ENE 3.5 mph - N/A   Overcast
12:15 PM 62.6 °F 57.2 °F 82% 30.06 in 10.0 mi NE 4.6 mph - N/A   Overcast
12:34 PM 64.4 °F 59.0 °F 83% 30.05 in 10.0 mi NNE 9.2 mph - N/A   Overcast
12:55 PM 64.4 °F 60.8 °F 88% 30.05 in 10.0 mi ENE 6.9 mph - N/A   Overcast
1:14 PM 66.2 °F 60.8 °F 83% 30.05 in 10.0 mi ENE 5.8 mph - N/A   Overcast
1:35 PM 66.2 °F 60.8 °F 83% 30.05 in 10.0 mi ENE 8.1 mph - N/A   Overcast
1:55 PM 66.2 °F 60.8 °F 83% 30.04 in 10.0 mi ENE 6.9 mph - N/A   Overcast
2:14 PM 66.2 °F 62.6 °F 88% 30.05 in 10.0 mi ENE 5.8 mph - N/A   Overcast
2:35 PM 66.2 °F 62.6 °F 88% 30.04 in 10.0 mi East 6.9 mph - N/A   Overcast
2:55 PM 66.2 °F 62.6 °F 88% 30.04 in 7.0 mi East 5.8 mph - N/A   Overcast
3:14 PM 66.2 °F 62.6 °F 88% 30.04 in 7.0 mi East 5.8 mph - N/A   Overcast
3:35 PM 66.2 °F 62.6 °F 88% 30.04 in 7.0 mi East 5.8 mph - N/A   Overcast
3:55 PM 66.2 °F 62.6 °F 88% 30.04 in 7.0 mi ESE 3.5 mph - N/A   Overcast
4:14 PM 68.0 °F 62.6 °F 83% 30.04 in 7.0 mi ESE 5.8 mph - N/A   Overcast
4:35 PM 68.0 °F 62.6 °F 83% 30.03 in 7.0 mi East 5.8 mph - N/A   Mostly Cloudy
4:55 PM 69.8 °F 62.6 °F 78% 30.03 in 7.0 mi East 8.1 mph - N/A   Mostly Cloudy
5:14 PM 69.8 °F 64.4 °F 83% 30.03 in 7.0 mi East 3.5 mph - N/A   Mostly Cloudy
5:35 PM 69.8 °F 62.6 °F 78% 30.03 in 7.0 mi East 5.8 mph - N/A   Mostly Cloudy
5:54 PM 69.8 °F 64.4 °F 83% 30.02 in 7.0 mi ENE 3.5 mph - N/A   Mostly Cloudy
6:15 PM 69.8 °F 64.4 °F 83% 30.02 in 2.0 mi East 3.5 mph - N/A   Haze
6:27 PM 69.8 °F 62.6 °F 78% 30.02 in 4.0 mi Calm Calm - N/A   Haze
6:55 PM 69.8 °F 64.4 °F 83% 30.02 in 2.5 mi Calm Calm - N/A   Haze
7:15 PM 69.8 °F 64.4 °F 83% 30.02 in 7.0 mi ENE 3.5 mph - N/A   Mostly Cloudy
7:35 PM 69.8 °F 64.4 °F 83% 30.04 in 7.0 mi East 3.5 mph - N/A   Mostly Cloudy
7:55 PM 69.8 °F 64.4 °F 83% 30.04 in 7.0 mi East 4.6 mph - N/A   Scattered Clouds
8:14 PM 69.8 °F 64.4 °F 83% 30.04 in 7.0 mi ENE 4.6 mph - N/A   Scattered Clouds
8:35 PM 68.0 °F 64.4 °F 88% 30.04 in 7.0 mi ENE 3.5 mph - N/A   Scattered Clouds
8:55 PM 66.2 °F 64.4 °F 94% 30.04 in 7.0 mi Calm Calm - N/A   Scattered Clouds
9:15 PM 66.2 °F 64.4 °F 94% 30.03 in 7.0 mi North 3.5 mph - N/A   Mostly Cloudy
9:35 PM 66.2 °F 64.4 °F 94% 30.04 in 7.0 mi Calm Calm - N/A   Mostly Cloudy
9:55 PM 66.2 °F 64.4 °F 94% 30.03 in 7.0 mi Calm Calm - N/A   Scattered Clouds
10:15 PM 64.4 °F 62.6 °F 94% 30.04 in 5.0 mi NE 3.5 mph - N/A   Clear
10:35 PM 64.4 °F 62.6 °F 94% 30.05 in 5.0 mi ENE 3.5 mph - N/A   Scattered Clouds
10:55 PM 64.4 °F 64.4 °F 100% 30.05 in 7.0 mi ENE 3.5 mph - N/A   Mostly Cloudy
11:14 PM 66.2 °F 64.4 °F 94% 30.06 in 7.0 mi East 5.8 mph - N/A   Mostly Cloudy
11:35 PM 66.2 °F 64.4 °F 94% 30.05 in 7.0 mi East 4.6 mph - N/A   Overcast
11:55 PM 66.2 °F 64.4 °F 94% 30.05 in 7.0 mi East 5.8 mph - N/A   Scattered Clouds